Regional Weather Roundup
Issued by NWS

Home | Current Version | Previous Version | Text Only | Print | Product List | Glossary On
Versions: 1 2 3 4 5 6 7 8 9 10 11 12 13 14 15 16 17 18 19 20 21 22 23 24 25 26 27 28 29 30 31 32 33 34 35 36 37 38 39 40 41 42 43 44 45 46 47 48 49 50
000
ASUS43 KFSD 181402
RWRSD

WEATHER ROUNDUP FOR SOUTH DAKOTA
NATIONAL WEATHER SERVICE SIOUX FALLS SD
900 AM CDT SAT APR 18 2015

NOTE: "FAIR" INDICATES FEW OR NO CLOUDS BELOW 12,000 FEET WITH NO
SIGNIFICANT WEATHER AND/OR OBSTRUCTIONS TO VISIBILITY.


SDZ001>005-009-010-012>017-181500-
NORTHWEST AND NORTH CENTRAL SOUTH DAKOTA

CITY           SKY/WX    TMP DP  RH WIND       PRES   REMARKS
BUFFALO          N/A     43  35  73 CALM      29.94S
FAITH            N/A     49  37  63 NE9       30.00F
MOBRIDGE       CLOUDY    53  28  38 SE9       29.99S
$$

SDZ012>016-024>037-041>051-057-063-072>074-181500-
SOUTHWEST AND SOUTH CENTRAL SOUTH DAKOTA

CITY           SKY/WX    TMP DP  RH WIND       PRES   REMARKS
RAPID CTY ARPT CLOUDY    48  46  93 NW7       29.99F
PIERRE         LGT RAIN  50  34  54 E3        29.98S
CUSTER         CLOUDY    41  38  89 NE13      29.99F
ELLSWORTH AFB  CLOUDY    49  49 100 NW3       29.99F
PHILIP         CLOUDY    50  45  83 E8        29.99R
PINE RIDGE     LGT RAIN  45  42  89 NE10      29.95S
WINNER         LGT RAIN  49  42  77 E7        29.97S
$$

SDZ004>011-016>023-039-040-181500-
NORTHEAST SOUTH DAKOTA

CITY           SKY/WX    TMP DP  RH WIND       PRES   REMARKS
ABERDEEN       CLOUDY    50  31  48 E6        30.02F
WATERTOWN      PTSUNNY   55  28  35 E7        30.02F
BROOKINGS      CLOUDY    61  25  25 E14G21    30.01F
SISSETON         N/A     52  28  39 SE7       30.05F
$$

SDZ017-020-022-023-036>040-048>070-181500-
SOUTHEAST SOUTH DAKOTA

CITY           SKY/WX    TMP DP  RH WIND       PRES   REMARKS
SIOUX FALLS    CLOUDY    56  36  47 E8        29.99F
HURON          CLOUDY    58  32  37 E6        29.98F
MITCHELL       CLOUDY    58  31  35 E12       29.96F
YANKTON        CLOUDY    57  45  62 E13       29.93F
$$

ABBREVIATIONS USED IN REMARKS
   TC - TEMPERATURE IN CELSIUS
  WCI - WIND CHILL INDEX
   HX - HEAT INDEX
  VSB - VISIBILITY



USA.gov is the U.S. government's official web portal to all federal, state and local government web resources and services.